Location: Maslives
(47.6335°N, 1.4792°E)
Time: 12:10:43
(UTC+00:00)

Cosmos 1844 Rocket - Pass Details

Date: 08 August 2025
Orbit: 824 x 842 km, 71.0° (Epoch: 20 April)

Event Time Altitude Azimuth Distance (km) Brightness Sun altitude
Rises 22:17:35 0° 324° (NW) 3,384 7.3 -22.5°
Reaches altitude 10° 22:20:17 10° 314° (NW) 2,443 6.1 -22.7°
Maximum altitude 22:25:03 30° 256° (WSW) 1,461 4.0 -23.1°
Enters shadow 22:26:58 24° 222° (SW) 1,657 4.0 -23.2°
